Wind_Speed
17 17 17 17 17 16 16 16 15 14 13 12 11 10 10 10 10 9 9 9 9 8 7 7 6 7 8 9 9 9 10 13 15 16 15 12 11 11 8 6 9 12 13 13 14 14 14 14 15 15 15 15 17 17 17 18 17 15 16 16 13 12 11 10 9 8 8 9 10 11 11 9 8 9 10 10 10 9 8 7 7 6 5 4 4 4 5 6
18 18 18 18 18 17 17 17 16 16 15 14 12 12 12 12 12 12 11 10 10 10 9 8 8 7 7 8 10 10 10 11 15 17 15 14 13 12 11 10 12 14 15 14 15 16 16 16 16 16 16 17 18 18 19 20 19 17 17 16 14 14 13 11 10 9 9 10 11 12 12 11 10 10 10 10 10 10 10 9 9 8 7 6 5 4 4 5
20 19 19 19 19 18 18 18 17 17 16 15 14 13 13 13 13 13 13 11 11 11 10 10 9 8 6 7 9 11 11 11 13 15 15 17 16 13 12 13 14 16 17 18 19 19 18 19 19 19 18 18 19 20 21 21 20 19 18 16 15 15 14 13 11 11 10 10 11 13 14 13 12 11 11 10 10 10 10 10 10 9 8 8 6 4 3 4
21 21 20 20 20 19 19 19 19 18 17 16 15 14 13 13 14 14 14 13 11 11 11 12 11 10 8 6 7 10 11 12 13 12 15 18 18 15 14 15 17 17 17 19 19 18 18 19 19 19 19 18 19 21 21 22 21 19 18 17 16 16 16 15 13 12 10 10 11 12 13 13 13 12 12 11 10 10 9 9 9 8 7 6 6 5 4 3
21 21 21 20 20 20 20 20 20 19 18 17 16 15 15 15 15 15 15 14 13 12 12 13 12 12 11 8 7 8 10 12 13 12 13 17 19 18 16 17 18 18 17 17 17 16 16 17 16 17 17 17 19 20 22 22 20 19 19 18 17 17 17 16 14 12 10 10 10 11 12 13 13 12 12 12 11 10 9 9 8 7 6 5 4 3 3 3
21 21 21 20 20 20 20 20 20 20 19 18 17 17 17 17 17 16 16 15 14 13 13 14 14 13 13 12 8 7 8 9 11 13 13 15 17 20 19 18 18 18 17 16 16 15 14 14 14 14 15 16 18 20 22 22 20 19 19 18 17 17 17 16 14 12 10 10 10 11 11 12 12 12 12 13 12 10 11 10 8 7 6 5 4 3 3 3
21 21 21 20 20 20 20 20 20 20 20 19 18 18 19 19 19 18 16 16 15 15 14 15 15 14 14 14 11 9 7 7 10 13 14 13 14 18 21 20 19 18 17 16 15 15 14 12 12 15 17 18 19 20 22 21 20 20 19 17 17 17 17 15 13 11 10 11 11 11 10 11 11 10 11 12 12 12 14 12 9 8 6 5 5 4 2 2
21 21 21 21 20 20 20 20 20 20 20 19 19 20 20 21 21 20 18 17 17 16 15 15 16 15 15 15 14 11 8 8 10 12 13 12 13 16 20 22 21 19 18 17 16 17 17 14 14 17 19 19 20 22 22 21 21 20 20 18 18 18 16 14 13 11 11 12 11 10 10 10 11 10 10 11 10 12 14 13 11 9 8 6 5 5 4 2
23 22 22 21 21 20 20 20 20 20 20 19 19 20 21 22 22 21 20 19 18 18 17 16 17 16 16 16 15 13 9 8 11 11 11 12 14 14 18 22 23 21 19 19 19 18 18 18 17 18 20 22 23 23 24 24 23 22 23 21 20 19 17 14 13 12 12 13 12 10 10 10 11 11 10 10 10 10 11 11 11 11 9 7 6 5 5 3
24 24 23 23 22 21 21 21 21 21 20 19 19 21 22 23 22 22 22 21 20 19 18 18 18 17 17 16 16 15 10 10 12 12 11 12 14 14 15 19 23 23 21 20 20 18 18 19 21 21 24 25 25 25 26 25 24 23 24 23 21 20 19 16 14 13 13 13 12 11 10 10 11 11 11 10 10 9 9 9 10 10 9 8 7 5 5 3
26 26 26 25 24 23 23 22 22 22 21 20 19 21 22 23 23 23 23 22 21 21 20 20 19 19 18 17 17 16 12 11 13 13 12 12 13 14 14 16 20 23 24 22 21 20 21 22 24 24 25 25 26 27 27 26 25 25 26 24 23 21 21 19 17 16 16 15 13 11 11 11 11 11 11 11 11 10 9 8 8 8 9 9 8 6 5 3
29 29 28 28 27 25 25 24 24 24 23 21 20 21 22 23 23 23 23 23 23 22 22 21 21 21 20 19 18 16 14 13 15 15 14 14 14 13 13 14 16 21 25 25 24 24 25 25 25 25 25 25 27 28 27 26 26 28 28 25 24 22 22 21 19 18 17 15 13 11 11 12 12 12 11 12 12 12 12 10 9 8 9 9 8 7 6 4
31 31 31 30 30 28 27 27 27 26 25 24 22 22 22 23 23 23 24 24 24 24 24 23 23 22 21 21 19 17 17 15 16 18 17 16 14 13 13 14 14 17 23 27 27 26 27 26 25 27 26 25 28 27 24 25 26 27 27 26 25 23 22 22 22 21 19 16 13 13 13 12 13 13 13 14 14 14 14 12 11 9 9 9 9 8 6 5
34 33 33 33 32 31 30 30 30 29 28 27 25 24 24 24 23 24 24 24 24 25 25 25 25 24 23 23 20 19 19 16 17 21 20 17 15 14 14 15 15 16 19 25 28 28 27 26 27 29 28 28 29 24 23 26 26 27 27 26 25 23 23 24 24 23 22 19 15 15 14 11 12 16 16 15 16 16 14 13 13 12 10 9 9 8 7 6
36 36 36 35 35 34 33 33 33 32 31 30 29 28 27 26 25 25 25 24 25 25 26 26 26 25 25 26 23 22 21 18 19 22 20 17 15 16 17 17 16 15 16 20 25 27 27 27 28 28 27 28 26 23 25 27 26 27 27 25 24 24 23 23 24 25 24 22 17 15 15 13 13 16 17 16 17 16 15 14 13 13 12 10 9 9 8 6
38 38 38 38 38 37 36 35 35 35 35 34 33 31 30 29 28 28 27 26 26 25 26 26 26 26 25 27 26 25 23 21 22 22 20 19 18 18 20 19 17 16 15 16 20 26 28 29 29 28 27 27 25 25 28 27 26 26 25 25 25 25 25 24 24 26 25 23 20 18 17 15 14 17 17 17 18 17 15 14 13 13 12 11 9 9 8 7
40 40 40 40 40 39 38 38 38 38 38 37 36 35 34 33 31 31 30 28 28 27 27 27 26 26 26 27 29 28 26 25 24 23 22 21 19 19 20 19 18 18 17 16 18 21 25 28 29 28 27 26 25 27 28 25 25 25 24 25 25 24 25 25 26 26 26 25 22 20 19 18 15 17 19 19 19 17 16 14 13 13 13 12 11 9 8 7
42 42 43 43 43 42 41 40 40 40 41 40 39 38 37 36 35 34 33 31 30 29 30 28 27 27 26 28 30 30 29 27 25 25 25 24 22 21 21 21 20 20 19 18 17 18 21 24 26 27 27 27 27 26 24 22 24 25 25 25 23 22 23 25 27 27 27 26 25 21 20 20 17 19 22 21 20 19 17 16 15 14 13 13 13 11 9 7
42 43 43 45 45 45 44 43 42 42 42 42 42 41 40 39 38 37 36 34 33 33 32 30 29 29 27 28 30 31 31 29 27 28 27 27 26 24 23 22 22 21 21 19 18 18 18 21 23 25 26 26 25 24 22 23 25 26 25 25 25 23 23 26 30 28 26 26 25 22 22 23 24 25 25 22 22 20 18 17 14 13 13 13 13 12 10 8
43 43 43 45 46 47 47 46 45 44 44 44 44 43 42 42 41 40 39 38 36 35 34 32 31 31 29 30 31 32 32 31 30 28 28 29 29 27 26 24 23 22 20 20 20 19 20 20 19 19 20 22 24 24 25 26 27 25 25 25 25 26 26 28 32 29 26 26 25 24 25 27 29 28 26 25 24 22 20 18 15 14 13 13 13 13 11 9
43 43 43 44 45 47 48 48 48 47 47 46 46 46 45 44 44 43 41 41 40 38 37 35 34 33 32 32 32 33 34 33 31 30 30 31 31 30 27 25 25 22 20 20 21 22 22 19 14 15 17 20 23 24 26 27 26 25 25 25 28 29 26 29 33 28 26 28 26 25 26 28 31 31 30 28 26 24 22 20 17 16 14 13 14 14 13 12
43 43 43 43 44 46 48 48 49 49 49 48 48 48 47 46 46 46 44 43 42 41 40 38 37 35 35 36 35 35 36 34 34 32 32 33 33 31 28 27 26 23 23 24 23 23 21 15 12 14 17 20 23 24 27 28 26 26 28 29 30 27 26 31 32 26 28 31 27 27 26 28 33 34 33 30 27 26 25 23 20 18 16 14 14 15 15 15
46 45 44 44 44 45 46 48 49 49 50 50 50 50 50 49 48 48 47 45 44 44 43 40 39 37 37 39 39 39 37 35 36 34 32 33 33 32 30 29 27 26 27 25 23 22 19 15 16 18 20 23 25 27 29 30 30 30 31 30 26 25 29 31 30 29 32 34 30 29 28 27 32 35 33 32 30 29 28 25 23 21 19 16 16 17 18 19
49 48 47 47 47 47 46 47 49 49 50 50 50 51 51 51 51 50 49 48 46 45 46 45 41 39 39 40 42 42 39 37 38 35 33 34 34 34 33 30 30 30 28 25 25 24 21 20 23 24 25 25 27 29 31 31 32 31 31 28 25 28 31 31 33 33 31 33 32 32 31 26 31 35 34 34 34 33 30 28 25 23 21 19 18 16 16 18
51 51 51 50 50 50 49 49 49 49 49 50 50 51 51 52 53 53 52 51 49 46 47 48 45 42 41 41 43 43 42 41 39 37 36 36 35 35 33 32 34 33 28 27 29 27 24 25 26 28 28 27 27 29 30 30 30 30 30 27 26 30 32 32 35 30 28 33 34 35 36 28 27 33 37 39 38 35 33 30 27 24 22 20 18 15 14 15
54 54 54 54 53 53 52 52 52 51 51 51 50 50 51 52 53 54 54 54 52 48 47 49 49 46 43 42 44 44 45 43 40 40 40 37 36 35 34 35 36 34 30 30 32 30 28 27 27 30 30 28 27 27 26 28 30 30 29 29 30 32 32 32 32 29 30 34 36 41 39 29 26 33 40 42 39 37 35 32 28 26 23 20 18 16 15 14
56 56 56 57 56 56 55 55 54 54 54 53 52 51 51 52 53 54 54 55 55 52 48 49 51 50 46 45 45 46 48 43 41 45 43 38 38 38 38 37 35 33 32 34 35 31 28 28 28 29 29 29 28 24 24 26 28 27 29 32 33 33 32 30 30 32 34 35 40 44 39 35 31 33 41 44 41 40 37 33 30 27 24 21 19 17 16 15
57 57 57 58 58 58 57 56 56 56 56 56 55 53 52 52 52 53 53 55 57 55 51 49 51 51 50 48 47 48 49 44 43 46 43 41 41 40 40 38 34 32 33 36 34 27 27 29 27 28 30 29 26 23 25 26 24 25 29 32 33 34 34 31 32 35 36 38 43 41 38 39 31 28 39 45 44 43 39 35 31 28 26 24 21 19 17 16
60 59 58 58 58 59 59 58 57 56 56 57 57 56 55 54 53 53 54 55 57 57 54 52 51 52 52 51 49 49 49 47 46 46 45 44 43 43 42 38 35 34 35 38 35 32 33 31 28 32 34 30 27 28 29 28 26 27 29 30 34 37 37 36 37 37 39 42 42 40 40 39 27 25 38 45 46 45 40 36 32 30 28 26 24 21 19 17
64 63 62 61 60 60 60 60 59 57 56 56 58 58 58 57 55 55 56 55 55 55 55 55 53 52 52 51 50 50 50 50 48 47 48 46 44 44 43 41 41 39 39 39 37 38 38 33 34 38 36 33 33 35 34 31 31 31 28 29 36 40 40 42 41 40 42 43 41 40 40 39 29 24 34 43 46 44 40 36 33 32 30 28 26 23 21 19
71 70 68 67 65 64 62 61 61 60 58 56 57 58 59 59 58 58 58 55 53 54 56 58 57 53 52 52 51 50 51 52 50 49 50 49 47 47 46 45 44 42 43 41 39 42 41 37 39 39 35 35 38 39 37 35 36 34 30 32 37 39 41 43 42 43 42 40 40 39 38 41 30 17 26 38 41 42 42 39 35 33 32 29 28 26 24 22
76 75 75 74 72 70 67 64 62 62 61 59 58 57 58 60 61 60 58 54 54 56 58 59 58 56 53 52 52 50 50 52 53 52 51 50 49 49 47 46 45 45 45 41 40 43 41 39 41 40 35 36 39 40 38 38 38 35 33 34 36 36 38 40 40 41 38 36 38 35 36 38 24 12 21 29 32 40 44 40 36 34 33 31 29 28 26 24
75 76 76 76 76 75 73 70 67 64 62 61 60 59 59 61 61 61 59 57 58 58 58 58 58 57 54 52 52 52 50 51 53 53 53 52 51 49 48 48 47 45 43 41 41 42 40 40 43 42 38 37 38 38 37 37 37 36 35 35 34 33 34 36 36 36 35 34 34 32 32 29 20 16 20 19 23 35 42 40 36 35 34 32 31 30 28 26
71 71 71 72 73 73 72 71 69 66 63 61 61 61 62 62 61 61 61 62 62 59 59 58 57 57 55 53 53 52 51 52 53 53 53 54 53 52 51 51 50 47 45 46 45 42 41 40 40 40 39 37 37 36 34 34 36 35 35 34 34 34 33 32 32 32 33 34 32 29 25 20 19 18 13 12 20 31 40 40 37 36 34 33 33 32 30 28
64 63 62 63 64 65 65 65 65 64 61 60 59 60 63 62 61 64 65 65 63 61 60 59 57 57 55 54 53 51 52 53 52 53 54 54 54 53 52 51 51 50 49 49 47 44 43 41 38 37 37 37 37 36 35 35 35 34 34 37 37 34 30 29 31 31 32 33 30 23 16 14 17 13 8 13 21 28 36 40 38 36 35 34 35 34 31 28
58 57 54 53 54 55 55 55 56 57 56 55 55 57 61 62 63 67 68 66 65 63 62 60 59 58 56 56 54 52 53 53 52 53 54 55 54 54 53 53 53 52 52 52 50 46 45 44 43 39 37 39 39 37 38 37 34 34 35 36 33 31 30 31 33 32 31 32 28 20 16 15 14 10 11 17 23 27 34 38 39 37 36 37 37 34 31 29
57 53 49 47 46 46 46 46 47 48 48 48 49 53 57 61 65 68 69 67 66 65 63 61 61 61 60 59 57 55 54 53 53 52 53 55 56 57 57 55 55 55 55 54 52 49 46 46 47 42 38 40 39 39 42 40 37 38 36 32 30 34 37 37 37 35 33 31 26 20 18 17 15 13 15 20 25 28 33 36 38 38 38 39 37 35 33 30
57 52 48 45 43 42 42 41 40 41 41 41 42 46 52 58 64 67 69 69 68 67 65 63 64 65 64 64 62 59 54 53 54 52 53 56 58 59 58 56 55 54 54 53 52 52 50 49 50 45 40 41 41 43 47 44 43 43 38 34 36 38 38 38 38 35 32 28 23 19 19 17 15 14 18 21 23 26 31 34 35 36 38 39 37 36 34 32
58 53 49 46 43 41 40 38 37 36 36 36 36 39 45 54 60 64 67 69 69 69 67 66 67 68 67 66 65 61 56 55 56 54 56 60 60 60 60 58 56 54 53 53 54 54 51 50 52 47 42 44 46 48 50 48 48 46 42 42 43 40 38 39 37 34 31 27 22 21 19 16 16 18 21 23 25 27 30 32 33 34 36 37 37 37 36 35
58 54 50 47 44 42 39 37 35 32 29 30 31 33 38 46 53 59 64 67 69 69 69 69 70 70 69 68 67 63 59 59 58 57 60 62 61 60 60 59 58 55 54 55 56 56 52 51 53 49 46 48 49 50 50 49 50 48 46 48 46 41 40 40 37 35 31 26 23 21 18 15 17 21 22 25 29 31 32 33 33 34 35 37 38 38 37 36
58 55 52 48 44 41 38 33 29 28 26 26 28 29 31 36 44 53 59 64 67 68 69 71 72 72 72 70 68 65 62 61 61 60 61 61 61 61 61 60 59 57 56 55 56 58 56 53 54 52 50 50 50 50 50 51 51 47 46 46 43 40 40 40 38 35 30 25 21 20 17 13 15 21 24 26 29 32 35 37 36 36 37 38 39 38 37 35
57 57 53 46 39 34 31 25 22 22 22 22 24 25 26 29 35 44 52 59 63 65 67 70 71 72 71 71 71 69 65 64 64 64 64 63 64 63 62 61 61 59 58 58 59 60 58 56 56 55 52 49 50 52 52 51 49 47 47 47 43 41 42 41 38 33 30 27 23 22 17 12 15 22 24 24 26 31 35 37 37 38 38 38 38 37 36 34
56 57 52 43 33 26 21 17 16 17 18 18 20 21 22 24 26 32 42 52 58 62 64 66 69 71 72 72 73 71 68 67 66 66 66 65 65 65 63 62 62 62 61 61 62 60 58 57 57 57 55 52 53 56 53 51 51 51 52 50 48 47 46 44 39 35 34 32 29 27 21 15 17 20 19 19 23 29 34 36 37 38 38 38 37 38 37 35
54 54 49 40 30 23 18 15 14 14 15 17 18 18 18 19 20 25 35 44 51 56 60 62 66 69 72 73 73 72 70 69 69 68 68 67 66 66 66 65 64 65 63 63 63 60 59 59 57 58 59 57 58 58 55 54 55 54 53 52 51 50 50 47 43 40 40 37 34 29 25 23 23 20 18 20 23 27 31 34 36 37 38 39 39 39 39 37
52 51 46 38 29 23 18 15 13 12 12 14 16 17 18 18 19 22 30 38 43 49 53 57 61 65 69 72 72 71 70 70 71 71 70 69 69 68 68 67 67 67 65 64 63 61 61 62 60 61 61 59 59 60 58 57 57 56 54 53 53 53 52 49 46 45 43 38 34 30 28 28 26 22 22 23 24 26 29 32 34 36 38 40 41 41 41 40
50 48 43 36 29 23 19 15 12 11 12 14 15 16 16 17 17 18 23 31 38 44 47 48 51 57 64 69 69 69 71 71 72 74 73 72 71 70 70 69 68 68 67 66 65 63 63 64 62 62 62 61 61 61 60 58 59 58 56 54 54 54 53 50 48 48 44 38 35 32 29 27 24 24 26 26 25 26 27 29 32 34 36 38 40 42 43 43
47 45 41 36 29 24 20 16 13 13 14 15 16 15 14 14 15 17 19 24 32 40 42 40 42 49 57 64 67 68 70 72 73 75 75 74 73 72 71 71 70 70 69 68 67 65 65 65 64 62 63 63 62 62 61 60 61 60 57 56 56 54 52 50 51 50 44 40 38 33 30 28 24 25 27 26 25 25 25 26 29 32 35 37 38 40 42 43
44 42 39 36 31 25 21 17 15 15 16 16 16 15 14 13 13 15 17 19 24 33 37 35 35 42 48 54 61 66 69 71 74 76 76 75 75 74 74 73 72 71 70 70 69 67 66 67 66 64 64 64 63 63 62 62 61 60 59 57 56 53 50 50 52 50 46 43 40 34 31 30 27 26 25 24 24 24 25 26 26 28 31 33 35 37 39 42
41 38 36 35 32 27 22 18 16 17 17 16 16 15 14 13 12 12 13 15 18 26 33 32 30 36 42 45 51 59 66 70 73 76 78 77 77 77 76 75 75 74 72 71 71 69 68 68 67 66 66 65 65 64 63 62 61 61 60 58 56 54 52 51 52 50 47 45 40 35 34 34 31 28 26 25 25 26 26 27 26 27 29 31 32 33 35 39
39 36 33 32 31 28 24 21 18 17 18 17 16 16 14 13 12 11 10 11 13 19 28 31 28 29 36 41 46 54 62 70 75 78 79 78 78 79 79 78 77 75 74 73 72 71 70 70 68 67 67 67 66 65 64 63 62 62 61 60 58 57 55 54 53 49 48 46 40 36 37 36 31 28 27 27 28 28 28 28 27 28 29 30 30 30 31 33
40 36 33 30 29 28 26 23 20 17 18 17 16 17 15 13 12 11 9 8 9 15 24 31 31 28 29 37 44 52 60 67 74 78 79 78 79 80 80 80 78 76 76 75 73 73 73 72 70 68 68 69 68 67 66 65 64 63 63 60 59 58 56 56 54 51 49 47 41 38 39 36 31 28 27 28 28 28 29 29 28 28 29 29 30 30 29 29
42 35 32 30 28 27 26 23 20 17 17 17 17 17 16 14 12 11 10 9 9 14 23 31 34 31 28 30 37 46 55 63 70 76 78 79 80 81 81 80 79 78 77 76 75 74 74 73 72 70 69 70 71 69 67 67 66 65 64 61 59 58 56 56 55 52 50 48 43 41 41 38 33 31 31 30 28 28 29 29 29 29 30 30 30 30 30 29
Wind_Direction
298 298 297 298 297 298 298 297 297 296 295 293 291 289 287 285 284 281 281 284 286 285 286 287 282 270 264 261 262 257 240 227 225 223 225 223 222 224 217 196 199 213 217 208 205 203 199 199 202 206 205 199 195 190 182 177 176 173 172 173 176 182 188 195 199 201 206 209 207 206 202 199 202 203 204 201 195 189 189 187 179 177 171 169 190 206 205 195
297 295 294 293 293 293 293 293 293 293 293 292 290 287 284 283 279 277 274 273 277 280 280 280 279 277 265 258 256 257 254 238 229 226 225 223 221 217 207 196 195 201 206 205 204 203 200 198 198 202 206 203 194 189 185 180 179 180 179 176 176 182 188 193 198 201 205 205 203 202 199 195 196 195 191 191 190 185 183 179 170 165 162 158 170 194 205 209
297 295 293 292 290 290 289 289 289 289 288 288 287 285 281 279 277 275 272 270 269 273 277 276 275 275 269 258 253 253 256 250 241 231 222 222 222 216 206 201 203 204 202 201 202 204 202 201 198 197 201 201 192 189 188 184 183 186 184 178 179 185 190 194 199 203 205 205 203 202 202 200 198 188 178 178 175 170 173 172 164 159 159 157 158 171 193 215
297 296 294 291 289 288 287 286 285 285 284 283 282 280 277 275 274 274 273 271 267 267 271 273 271 271 270 260 252 251 253 254 252 242 225 222 222 218 209 205 211 214 212 208 206 206 208 208 203 198 197 194 189 190 189 186 186 189 189 183 183 188 193 197 200 202 203 205 203 200 203 205 205 194 179 172 164 161 169 170 166 160 157 154 150 154 167 192
296 295 294 292 289 287 285 284 283 282 281 280 278 275 272 269 269 270 273 273 269 266 265 268 267 268 270 263 253 248 250 253 254 252 238 227 222 219 214 210 215 220 222 220 216 213 213 214 211 204 199 191 187 189 191 190 188 191 192 188 188 192 197 198 198 200 201 203 201 198 201 204 208 204 191 176 166 168 177 177 168 159 151 143 141 147 157 163
295 295 294 293 291 288 285 283 281 280 278 276 274 271 267 265 265 266 269 272 270 266 263 265 263 262 267 266 258 246 250 257 255 252 247 236 225 220 217 215 218 222 224 224 224 221 217 218 213 206 200 194 190 192 196 194 192 196 196 192 193 195 198 198 196 198 199 202 199 196 199 203 206 204 198 186 177 178 179 176 164 152 145 138 135 138 152 162
294 293 293 293 292 290 287 284 281 279 277 275 272 268 264 261 261 263 265 267 267 266 263 263 261 259 262 264 261 251 249 257 253 247 247 245 234 223 219 218 218 222 225 224 226 224 222 220 211 206 202 197 195 198 202 199 198 202 198 195 197 195 194 193 193 196 198 204 201 195 197 201 201 195 194 189 186 189 177 163 153 142 138 138 133 129 140 176
290 290 291 291 292 291 290 287 284 280 277 274 270 266 262 260 259 260 261 262 262 263 261 261 261 258 257 259 260 254 247 249 249 248 249 249 241 228 220 218 217 220 222 222 222 221 219 216 211 207 203 200 200 202 207 205 204 207 202 197 197 193 189 189 192 197 202 207 202 195 196 197 194 186 186 181 180 191 178 158 146 135 129 130 127 128 131 159
286 286 287 287 288 289 289 288 286 283 279 275 271 266 263 260 258 258 258 257 258 258 258 259 260 259 256 255 256 253 246 246 247 247 247 247 243 234 224 219 216 217 218 217 217 217 214 211 210 207 205 205 202 204 209 209 207 209 208 200 197 193 188 190 195 202 210 211 205 199 198 196 189 181 179 177 171 175 171 159 149 135 124 118 115 121 124 128
282 282 282 282 284 284 285 285 285 283 281 278 272 268 264 262 259 258 256 254 254 254 255 256 257 259 256 253 252 249 244 244 248 246 241 244 246 242 233 224 219 216 216 216 216 217 215 211 209 207 207 206 203 205 209 211 209 211 213 205 201 197 191 193 200 208 215 214 208 203 203 199 191 181 172 172 167 157 154 156 150 137 124 111 104 104 108 112
280 278 277 277 278 278 280 280 280 280 279 278 274 270 267 264 261 259 257 254 251 251 252 252 254 256 256 254 249 247 245 240 246 248 239 239 244 244 241 232 224 218 217 217 215 214 214 213 213 212 211 208 206 209 211 212 209 212 216 210 206 203 193 195 202 208 212 213 212 208 210 209 202 195 181 172 162 146 139 139 142 137 125 111 101 92 88 94
279 277 275 274 273 273 273 275 275 275 275 275 273 270 268 266 264 261 258 256 252 250 249 249 251 253 254 254 249 246 247 240 241 246 241 237 241 244 244 240 231 222 219 218 216 214 212 213 215 215 216 213 211 214 215 213 210 213 218 213 211 207 196 196 203 206 208 210 212 207 211 215 213 207 188 172 159 145 136 130 129 130 122 110 99 89 78 77
279 277 275 274 272 270 269 269 270 271 272 271 270 268 267 266 265 262 259 257 255 252 250 248 248 249 251 252 249 247 248 241 239 244 242 238 238 240 242 242 237 228 222 220 219 216 215 214 213 216 218 215 216 219 217 215 213 215 219 218 216 211 202 202 204 207 209 208 204 202 208 213 212 208 189 170 159 149 141 133 126 119 112 104 98 92 79 67
279 278 276 274 273 271 269 268 267 267 268 268 268 266 265 264 264 263 261 258 256 254 252 250 247 246 248 249 247 245 246 241 238 242 243 241 237 236 238 238 237 233 226 223 222 221 221 218 215 218 217 215 219 221 218 217 216 217 219 221 220 215 210 207 205 207 210 205 199 206 217 215 204 205 197 176 162 154 148 140 129 117 107 102 98 93 84 68
278 277 276 275 273 271 270 268 267 266 265 265 265 264 264 263 262 261 260 259 257 255 253 252 249 245 244 247 246 243 243 240 239 241 244 243 237 233 234 235 236 237 233 227 225 223 223 222 222 223 221 220 223 221 219 220 219 219 220 221 222 220 216 211 208 208 208 205 202 212 224 222 210 207 202 181 167 161 155 147 135 122 112 106 101 94 89 77
276 275 275 274 273 271 270 269 268 266 265 263 263 262 262 262 261 260 259 258 257 256 254 252 251 247 244 246 246 243 241 239 239 241 245 244 237 233 235 236 235 237 237 233 228 224 223 223 225 227 226 227 226 222 223 223 221 222 222 221 222 222 220 216 213 209 208 205 203 210 219 222 216 208 200 184 173 167 162 156 145 134 123 116 109 99 93 82
276 275 274 273 271 270 269 267 267 266 265 263 262 261 260 259 259 259 258 257 256 255 254 252 251 249 246 245 245 243 241 237 238 241 243 242 237 235 236 235 233 233 233 232 230 228 226 225 227 228 227 229 227 225 227 226 224 224 223 223 224 223 219 218 217 212 209 206 201 204 215 224 220 204 197 187 177 172 170 167 159 148 137 129 120 109 102 93
278 276 274 273 271 269 268 267 265 265 264 263 262 260 259 258 257 257 257 256 255 253 252 251 250 248 246 246 245 244 242 238 237 240 240 240 238 235 235 233 231 231 231 231 231 229 228 228 228 228 227 226 227 228 230 230 228 226 225 226 228 228 222 220 222 215 210 209 204 201 209 221 218 202 198 192 181 178 178 177 171 162 152 143 133 121 113 106
279 277 276 274 272 270 268 266 265 264 263 262 261 260 259 257 256 255 255 255 253 252 251 250 249 248 246 246 246 245 245 240 235 236 238 239 238 235 233 234 233 232 231 230 231 231 230 229 228 228 230 229 229 230 233 234 230 228 228 227 229 231 226 223 227 221 213 213 210 202 201 209 211 204 203 198 185 183 184 180 175 170 161 152 143 131 122 122
279 278 277 276 274 271 269 267 265 263 262 262 261 260 258 257 256 254 253 253 252 252 251 249 247 248 246 246 247 246 246 243 237 234 236 238 238 236 234 234 235 234 233 232 231 230 230 230 228 231 234 232 231 231 232 233 232 229 228 226 228 232 228 225 230 227 219 219 215 208 204 206 211 208 205 201 189 186 186 179 176 174 168 162 153 140 133 135
281 280 278 277 275 273 271 269 266 264 262 261 261 260 258 256 256 254 252 252 251 250 250 249 246 246 247 246 246 246 246 245 241 235 234 237 238 237 235 235 236 236 236 234 230 228 228 229 228 230 229 225 226 227 229 232 232 229 228 225 226 230 230 229 233 231 227 227 221 216 212 207 209 209 205 201 191 187 186 181 179 179 178 174 164 155 150 147
283 282 281 280 278 275 273 271 269 266 264 261 260 259 258 257 255 254 252 251 250 249 247 247 246 244 245 244 244 244 244 245 244 237 234 236 237 238 235 234 235 235 235 232 228 228 228 225 221 220 218 217 217 218 222 227 227 225 225 224 223 225 228 232 235 232 230 233 228 224 221 210 209 210 206 201 192 189 189 185 184 184 185 185 177 171 163 154
284 283 282 282 281 278 275 273 271 269 266 263 261 259 258 257 256 254 252 250 250 249 247 246 245 243 243 243 243 243 243 245 245 242 238 237 238 238 235 233 234 233 233 232 232 231 225 219 215 211 211 212 211 211 215 219 220 220 220 221 219 219 225 230 235 231 229 234 233 231 229 214 211 213 207 201 195 191 191 189 188 186 186 193 193 184 172 162
284 283 282 281 281 280 278 276 274 271 269 266 263 260 258 257 256 254 253 250 248 248 249 246 243 242 242 242 243 243 242 242 244 243 240 238 237 237 235 233 234 232 230 231 233 231 221 215 212 209 211 212 210 212 214 216 218 218 218 217 213 217 222 224 230 229 227 234 236 238 240 223 212 214 208 203 200 194 194 193 191 190 189 197 201 194 184 172
283 282 281 280 279 279 278 277 276 274 272 269 266 263 260 258 256 255 253 251 247 246 248 248 244 240 240 242 243 243 242 241 242 243 240 238 238 238 236 233 232 230 228 229 232 229 222 216 212 213 215 215 215 216 216 217 218 219 219 216 215 220 221 221 227 228 225 233 235 238 242 228 211 212 209 208 204 197 196 196 193 194 195 200 201 195 191 183
281 280 279 278 277 276 276 275 275 275 274 271 268 266 263 260 257 255 254 252 249 245 244 247 246 242 238 240 242 243 242 240 239 240 239 238 238 238 236 233 232 230 226 228 231 228 224 219 214 217 218 218 220 219 219 220 219 217 216 215 218 221 222 221 225 227 225 229 233 236 238 232 218 211 211 212 207 200 200 198 196 196 198 199 197 194 192 187
279 277 276 275 274 273 273 272 273 273 272 272 270 268 265 262 259 257 255 253 250 246 243 243 245 244 239 237 239 241 242 239 238 240 239 238 238 237 236 234 232 231 227 227 229 226 226 224 217 220 222 221 224 224 224 226 223 218 215 214 216 219 222 221 221 225 225 226 231 236 237 238 230 212 212 215 208 204 204 201 199 198 197 196 192 194 196 192
281 278 276 275 273 272 270 270 269 269 269 270 269 268 266 263 261 258 256 254 250 247 245 243 242 243 242 238 236 239 241 239 238 240 239 236 236 236 237 236 234 233 230 228 229 227 228 228 221 223 226 224 224 225 225 226 224 219 217 215 215 218 221 220 220 223 225 225 231 235 235 239 235 210 213 218 212 209 208 205 203 199 196 193 192 194 196 197
284 281 278 277 276 273 271 269 267 266 266 266 266 265 264 263 261 259 256 254 250 248 247 245 242 241 241 239 236 236 239 238 237 238 238 235 235 236 236 236 233 232 230 228 226 223 224 223 218 219 222 220 217 220 221 221 220 219 219 214 213 218 219 218 220 220 222 227 232 232 232 239 238 211 212 219 217 213 210 209 206 200 197 193 192 194 195 199
286 283 280 278 277 275 273 271 268 266 264 262 262 262 261 260 259 257 255 253 251 249 247 246 243 240 239 239 236 234 236 237 236 235 237 235 233 234 234 233 231 229 229 227 224 223 221 217 219 219 217 215 214 217 219 217 219 219 215 211 212 218 218 219 221 219 223 232 236 232 230 240 241 215 212 219 221 217 210 209 208 203 200 195 193 195 197 198
290 287 283 280 278 276 274 272 269 266 264 261 259 258 258 257 255 254 254 253 252 250 246 244 243 241 238 237 236 234 233 235 235 234 235 234 231 231 231 231 230 228 228 227 224 225 221 216 223 223 216 215 216 218 218 218 222 221 214 212 215 218 220 223 223 224 229 238 241 236 232 239 240 211 211 222 223 220 213 209 210 207 204 199 195 197 199 197
294 291 287 284 281 278 276 273 270 266 264 261 258 255 254 253 253 252 253 253 250 248 245 244 243 241 239 237 236 234 231 232 233 234 234 234 232 231 232 233 232 230 231 230 227 228 224 217 223 226 219 219 221 220 219 220 224 224 219 218 220 220 223 226 226 229 237 242 243 242 238 239 243 229 225 226 220 220 216 212 212 210 207 203 199 199 200 199
297 294 291 287 284 281 278 275 271 267 264 260 257 253 250 249 250 250 249 248 247 246 245 244 242 242 240 237 235 234 231 229 230 232 233 233 232 230 229 231 232 231 233 233 231 232 231 223 222 225 222 222 225 224 223 225 227 227 225 224 226 226 227 229 230 233 240 244 245 249 247 247 256 251 235 223 212 216 216 213 211 212 210 206 202 202 202 201
302 298 294 290 286 283 279 276 273 269 264 260 255 251 248 246 246 247 245 243 244 244 244 243 242 241 240 238 235 233 231 229 227 229 230 231 231 229 226 226 227 227 228 230 229 229 232 230 225 226 227 227 229 230 228 229 231 230 229 229 230 231 231 233 236 238 242 245 248 253 253 251 256 249 232 212 206 210 214 213 209 210 211 208 205 205 204 203
310 304 299 293 289 285 281 278 274 270 265 260 254 250 246 243 241 241 241 241 242 241 242 242 242 241 240 239 236 232 231 230 227 226 227 229 231 230 228 225 225 225 225 228 228 226 227 229 227 226 227 230 230 231 230 228 229 229 228 228 228 229 232 234 237 239 241 244 247 250 247 246 249 239 200 191 195 201 210 211 207 207 210 210 209 209 207 203
319 312 306 299 294 290 286 282 277 272 267 261 254 248 243 240 237 236 238 239 239 238 238 238 239 240 239 239 236 232 230 228 227 225 225 226 228 229 227 224 223 222 223 226 226 225 225 227 227 221 219 224 227 229 230 229 228 228 227 228 229 229 231 231 233 235 237 241 244 240 232 234 231 201 174 183 187 195 205 207 206 207 209 213 213 212 210 205
326 319 312 306 300 295 291 288 283 278 272 265 256 247 241 238 236 234 234 234 235 235 234 233 234 235 235 236 234 231 228 227 226 224 224 224 224 225 225 224 222 221 222 225 225 223 223 226 228 221 216 220 222 226 229 225 225 227 225 226 227 226 226 227 229 230 231 236 237 232 225 222 215 196 184 184 187 195 202 203 205 206 210 214 215 214 212 207
331 324 317 310 305 300 296 293 289 284 279 271 261 250 241 236 234 233 231 230 230 231 230 229 230 231 231 232 232 230 227 225 224 222 222 222 222 223 225 224 223 222 223 224 224 223 221 223 227 222 216 219 220 223 226 222 221 224 221 220 222 222 224 226 229 230 231 233 234 231 225 215 208 195 183 182 185 192 199 202 203 206 211 215 215 215 212 208
334 328 320 314 309 305 300 297 293 289 284 277 267 256 245 237 234 232 229 227 226 226 226 225 226 227 228 230 231 229 224 223 221 219 219 221 220 221 222 223 222 221 221 221 223 224 221 221 226 222 216 218 219 222 225 222 222 223 218 219 220 218 221 225 227 229 232 233 234 235 231 218 206 194 185 184 184 187 195 199 201 205 211 215 216 215 211 209
335 330 322 316 310 306 301 299 297 291 283 278 272 264 251 241 234 232 230 226 224 223 223 222 223 224 225 227 228 227 223 222 221 218 219 221 221 220 221 222 222 220 219 219 220 223 220 218 224 222 216 218 221 223 225 225 225 224 221 222 221 218 219 222 223 224 226 226 226 229 229 218 203 193 187 186 185 187 193 199 201 204 208 212 215 214 212 211
335 331 325 318 311 304 300 299 294 286 280 277 274 268 259 247 236 232 230 228 225 222 221 221 221 221 222 223 224 223 221 220 220 219 219 220 220 219 219 219 220 218 217 217 218 221 219 215 219 221 217 218 223 225 226 227 227 226 226 228 228 224 225 226 224 223 224 223 223 223 218 205 193 188 187 190 190 191 194 199 202 204 207 211 215 215 214 214
337 334 330 325 316 308 303 298 287 281 278 275 272 270 267 258 244 234 230 229 227 223 221 220 219 219 219 219 220 220 218 217 218 218 218 218 218 219 218 218 218 217 215 215 216 219 219 215 215 220 219 217 221 224 225 227 228 228 228 229 228 226 228 230 227 225 226 226 226 226 216 198 188 187 188 192 195 194 195 198 201 203 208 212 214 213 213 213
340 339 337 334 328 321 313 299 283 279 278 274 275 278 276 267 254 241 232 229 228 225 222 220 219 217 216 216 217 218 216 215 216 217 217 217 217 218 217 217 217 216 214 214 215 216 218 216 213 218 219 215 219 223 223 224 226 226 226 226 224 223 224 226 225 224 224 224 223 224 220 202 183 179 187 197 199 197 197 198 199 201 206 210 211 210 210 210
342 344 343 342 340 335 325 309 296 290 285 283 283 285 282 274 263 249 237 230 228 227 224 221 220 218 216 215 214 214 214 213 214 216 217 217 217 217 217 216 216 216 215 215 215 213 216 218 213 215 218 215 217 221 221 222 225 226 225 225 225 223 223 222 221 220 220 219 216 216 216 206 190 184 197 206 203 201 199 200 200 201 204 207 208 210 211 212
345 348 349 347 347 345 336 325 317 307 298 295 292 290 287 281 272 257 242 233 227 225 224 222 221 220 217 215 213 212 211 211 212 214 215 216 216 216 217 216 216 216 215 215 216 213 214 217 214 213 217 217 218 221 221 222 225 226 225 225 225 225 224 223 221 222 221 218 214 211 210 206 193 189 202 206 207 206 201 200 202 203 205 207 208 211 213 215
345 351 353 352 351 349 344 337 332 323 314 309 304 300 293 282 275 265 248 237 229 225 223 221 222 222 219 215 213 211 209 209 211 213 213 213 215 215 216 217 216 216 215 215 215 213 213 216 216 214 217 217 218 221 222 222 225 226 226 226 226 226 225 223 223 225 224 220 217 213 210 206 192 189 200 204 208 211 204 200 202 204 206 208 209 211 213 215
346 351 355 357 356 353 348 342 335 329 324 319 315 311 304 290 278 269 254 240 232 226 222 220 221 223 220 216 213 211 209 208 209 212 212 212 213 214 215 216 216 216 216 214 215 214 213 215 216 216 217 218 218 220 221 222 224 226 226 226 227 227 226 223 224 226 225 222 220 216 212 210 198 190 197 203 208 214 212 205 202 204 208 210 210 210 211 214
347 350 353 357 359 357 351 343 333 328 327 325 320 316 314 308 294 280 264 247 235 226 220 218 220 221 220 217 214 212 209 207 208 210 210 211 212 213 214 216 216 216 216 215 215 214 214 214 214 214 217 219 220 221 221 222 224 226 227 228 229 229 227 226 226 226 225 224 221 216 214 214 205 193 193 202 209 215 217 214 208 208 210 213 214 213 212 214
349 350 352 354 357 357 352 343 334 330 329 328 323 317 317 318 312 300 281 259 241 226 215 210 216 222 219 215 213 212 211 208 208 209 209 209 210 211 213 214 215 216 216 215 215 214 215 215 213 213 215 217 219 221 221 223 224 225 227 228 229 230 228 228 228 226 226 226 222 217 216 216 211 203 199 203 210 216 221 221 217 215 214 215 217 217 214 214
350 351 352 352 354 356 353 344 338 334 331 330 327 322 322 323 318 315 302 271 246 228 215 206 207 217 220 217 212 211 211 209 208 208 208 207 208 210 212 213 214 215 216 216 215 214 215 216 213 213 215 217 219 220 221 222 224 225 226 227 228 229 228 229 230 228 228 229 223 219 220 218 215 213 210 209 213 218 224 226 224 222 221 220 222 222 220 218
350 351 351 350 351 355 354 347 341 338 333 332 331 327 326 325 321 321 316 287 242 222 217 211 206 206 214 220 218 214 212 209 209 209 208 206 207 209 211 213 213 214 216 216 216 215 215 216 214 213 214 217 218 219 220 222 223 224 225 226 226 228 228 229 231 230 230 230 225 221 222 221 219 220 220 217 215 216 222 228 230 228 227 226 227 228 228 226
350 350 350 349 349 352 355 352 345 341 336 333 333 332 330 328 325 322 315 299 255 222 218 215 210 204 203 211 219 220 217 212 209 210 208 207 208 209 210 212 213 214 215 216 216 216 215 215 215 214 214 216 218 218 219 221 222 223 224 225 226 227 228 230 232 231 231 232 227 222 222 222 220 220 222 221 218 215 216 223 230 231 231 230 229 230 231 231
Height
5889 5889 5888 5887 5887 5887 5886 5886 5885 5885 5885 5885 5885 5884 5884 5883 5883 5882 5882 5882 5882 5882 5882 5881 5881 5881 5881 5881 5880 5881 5881 5882 5882 5882 5883 5884 5885 5886 5887 5888 5888 5889 5890 5891 5892 5893 5894 5895 5896 5897 5898 5900 5901 5903 5904 5905 5905 5906 5906 5907 5907 5908 5908 5908 5909 5909 5909 5909 5910 5910 5910 5910 5909 5909 5909 5910 5910 5910 5911 5911 5911 5911 5911 5911 5912 5912 5912 5912
5888 5887 5887 5886 5886 5885 5885 5884 5884 5884 5884 5883 5883 5883 5882 5882 5881 5881 5881 5881 5881 5880 5880 5880 5880 5880 5880 5880 5880 5879 5879 5880 5880 5881 5882 5883 5884 5885 5886 5886 5887 5887 5889 5890 5891 5892 5892 5893 5894 5896 5897 5898 5900 5902 5903 5904 5905 5905 5906 5906 5907 5907 5907 5908 5908 5908 5909 5909 5909 5909 5909 5909 5909 5909 5909 5909 5910 5910 5910 5910 5910 5910 5910 5910 5911 5911 5912 5912
5886 5885 5885 5884 5884 5883 5883 5883 5882 5882 5882 5882 5882 5881 5881 5880 5880 5879 5879 5879 5880 5879 5879 5879 5879 5879 5879 5879 5879 5878 5878 5878 5878 5879 5881 5881 5882 5883 5885 5885 5885 5886 5887 5888 5889 5890 5891 5891 5892 5894 5895 5897 5899 5900 5901 5903 5904 5904 5905 5906 5906 5907 5907 5907 5907 5907 5908 5909 5909 5909 5909 5909 5909 5909 5909 5909 5910 5910 5910 5910 5910 5910 5910 5909 5910 5910 5911 5911
5884 5883 5883 5882 5882 5881 5881 5881 5881 5881 5880 5880 5880 5880 5879 5879 5878 5877 5878 5878 5878 5878 5878 5877 5877 5878 5878 5878 5878 5878 5877 5877 5877 5878 5879 5879 5880 5882 5883 5884 5884 5884 5885 5886 5887 5888 5889 5890 5891 5892 5894 5895 5897 5899 5900 5902 5903 5903 5904 5905 5906 5906 5906 5906 5906 5907 5908 5909 5909 5910 5910 5909 5909 5909 5909 5909 5910 5910 5910 5910 5910 5910 5909 5909 5909 5909 5910 5910
5882 5881 5880 5880 5879 5879 5879 5879 5878 5878 5878 5879 5879 5878 5878 5877 5876 5876 5876 5876 5877 5877 5876 5876 5876 5876 5876 5877 5877 5877 5876 5876 5876 5876 5877 5878 5879 5880 5881 5882 5882 5883 5884 5885 5886 5887 5888 5889 5891 5892 5893 5895 5897 5898 5899 5900 5902 5902 5903 5904 5905 5905 5905 5906 5906 5907 5908 5909 5909 5909 5910 5909 5909 5909 5909 5909 5909 5910 5910 5910 5910 5909 5909 5909 5909 5909 5909 5909
5879 5879 5878 5877 5877 5877 5876 5876 5876 5876 5876 5876 5877 5877 5876 5875 5875 5875 5875 5875 5875 5875 5875 5874 5874 5874 5874 5875 5876 5876 5876 5875 5875 5875 5875 5876 5877 5878 5879 5880 5881 5882 5883 5884 5885 5886 5888 5889 5890 5892 5893 5895 5896 5897 5898 5899 5901 5901 5902 5904 5904 5904 5905 5906 5906 5907 5908 5909 5909 5909 5909 5909 5909 5909 5909 5909 5908 5909 5909 5909 5909 5908 5908 5908 5908 5908 5909 5909
5877 5876 5876 5875 5875 5874 5874 5874 5873 5873 5873 5874 5874 5874 5874 5873 5873 5873 5873 5873 5873 5873 5873 5873 5872 5873 5872 5873 5874 5874 5875 5874 5874 5873 5873 5874 5875 5876 5877 5879 5880 5881 5882 5883 5884 5886 5887 5888 5890 5891 5892 5893 5895 5896 5897 5898 5900 5901 5902 5903 5903 5904 5905 5906 5907 5907 5908 5908 5908 5909 5909 5909 5909 5909 5909 5908 5908 5908 5908 5908 5908 5907 5908 5908 5908 5908 5908 5909
5874 5874 5873 5873 5872 5872 5871 5871 5871 5871 5871 5871 5872 5871 5871 5871 5871 5871 5871 5871 5871 5871 5871 5871 5871 5871 5871 5871 5872 5873 5873 5873 5872 5872 5872 5873 5873 5874 5875 5877 5878 5879 5880 5882 5883 5884 5886 5887 5888 5889 5891 5892 5894 5895 5896 5897 5898 5899 5901 5902 5903 5903 5904 5906 5906 5907 5907 5908 5908 5909 5909 5909 5909 5909 5909 5908 5908 5908 5907 5906 5906 5907 5907 5907 5907 5907 5908 5908
5872 5871 5871 5870 5870 5869 5869 5869 5868 5868 5868 5869 5869 5868 5868 5868 5868 5869 5869 5869 5869 5869 5869 5869 5869 5869 5869 5870 5870 5871 5872 5871 5871 5871 5871 5871 5871 5872 5873 5875 5876 5877 5879 5880 5881 5882 5883 5885 5887 5888 5889 5890 5891 5893 5894 5895 5896 5897 5899 5900 5902 5903 5904 5905 5906 5907 5907 5907 5908 5908 5909 5909 5908 5908 5908 5908 5908 5908 5907 5906 5906 5906 5906 5906 5907 5907 5907 5907
5869 5869 5868 5868 5867 5867 5867 5866 5866 5865 5865 5866 5866 5865 5865 5865 5866 5866 5866 5867 5867 5867 5867 5867 5867 5867 5867 5868 5868 5869 5870 5869 5869 5870 5870 5870 5870 5871 5871 5873 5874 5876 5877 5878 5879 5881 5882 5884 5885 5885 5886 5887 5889 5890 5892 5893 5894 5896 5897 5899 5901 5902 5904 5905 5905 5906 5906 5907 5907 5908 5908 5908 5908 5908 5908 5908 5907 5907 5907 5907 5906 5905 5905 5906 5906 5906 5906 5907
5866 5865 5865 5865 5865 5864 5864 5864 5863 5863 5862 5863 5863 5862 5862 5862 5863 5863 5863 5864 5864 5865 5865 5865 5865 5865 5865 5866 5866 5867 5868 5868 5868 5868 5868 5869 5869 5869 5870 5871 5872 5874 5875 5876 5878 5879 5880 5881 5882 5883 5884 5885 5887 5888 5889 5891 5893 5894 5895 5897 5899 5901 5903 5904 5905 5905 5906 5906 5907 5908 5908 5908 5908 5907 5907 5907 5907 5907 5907 5907 5906 5905 5905 5905 5905 5906 5906 5906
5862 5862 5861 5861 5861 5861 5861 5861 5860 5860 5860 5860 5860 5860 5859 5859 5860 5860 5860 5861 5861 5862 5862 5862 5863 5863 5863 5864 5864 5865 5865 5866 5866 5866 5866 5867 5867 5867 5868 5869 5870 5872 5873 5874 5875 5876 5877 5878 5879 5881 5882 5884 5885 5886 5887 5889 5891 5892 5893 5896 5897 5899 5901 5903 5904 5905 5905 5906 5907 5908 5908 5908 5908 5907 5906 5906 5906 5906 5906 5907 5906 5906 5905 5905 5905 5905 5905 5905
5858 5858 5857 5857 5857 5858 5858 5858 5857 5857 5857 5857 5857 5857 5856 5856 5856 5856 5857 5857 5858 5859 5859 5859 5860 5860 5861 5861 5862 5862 5863 5863 5864 5864 5864 5865 5865 5866 5866 5867 5868 5869 5870 5871 5872 5873 5874 5876 5878 5879 5880 5882 5883 5883 5885 5888 5889 5890 5892 5894 5895 5897 5900 5901 5902 5903 5904 5905 5906 5907 5907 5907 5907 5907 5906 5906 5906 5906 5906 5906 5906 5906 5905 5905 5904 5904 5905 5905
5854 5853 5853 5853 5853 5853 5854 5854 5853 5853 5853 5853 5854 5854 5853 5853 5853 5853 5854 5854 5855 5855 5856 5856 5857 5858 5858 5858 5859 5860 5860 5861 5861 5861 5862 5863 5863 5864 5865 5865 5866 5867 5868 5869 5870 5871 5873 5874 5875 5875 5877 5879 5880 5882 5885 5886 5887 5889 5890 5892 5893 5896 5898 5899 5900 5902 5903 5904 5905 5906 5905 5906 5906 5906 5905 5905 5905 5905 5905 5905 5905 5905 5905 5905 5904 5904 5904 5904
5849 5849 5848 5848 5848 5848 5849 5849 5849 5849 5849 5849 5850 5850 5850 5850 5850 5850 5850 5851 5851 5852 5852 5853 5853 5855 5855 5855 5856 5857 5858 5858 5858 5858 5859 5860 5861 5862 5862 5863 5864 5865 5865 5866 5868 5869 5871 5872 5872 5873 5875 5876 5878 5881 5883 5884 5886 5887 5888 5890 5892 5894 5896 5897 5898 5900 5901 5902 5904 5904 5904 5904 5905 5905 5904 5904 5904 5905 5904 5904 5904 5904 5904 5904 5904 5904 5904 5904
5844 5844 5843 5843 5842 5843 5844 5844 5844 5843 5844 5844 5845 5846 5846 5846 5847 5847 5847 5847 5848 5848 5849 5849 5850 5851 5852 5852 5852 5854 5855 5856 5855 5856 5857 5858 5858 5859 5860 5861 5862 5863 5863 5864 5865 5866 5868 5869 5870 5872 5874 5875 5877 5880 5880 5882 5883 5885 5887 5889 5891 5892 5894 5895 5896 5898 5899 5901 5903 5903 5902 5902 5903 5903 5903 5903 5903 5904 5904 5904 5904 5903 5903 5903 5904 5904 5904 5904
5839 5839 5838 5837 5837 5837 5838 5839 5839 5838 5838 5839 5840 5841 5841 5842 5842 5843 5843 5844 5844 5845 5845 5846 5847 5847 5849 5849 5848 5850 5852 5852 5853 5854 5855 5855 5856 5857 5857 5859 5860 5860 5861 5862 5863 5864 5865 5867 5868 5870 5872 5874 5876 5877 5877 5879 5881 5883 5885 5887 5888 5890 5892 5893 5894 5896 5897 5899 5901 5902 5901 5900 5901 5902 5902 5902 5902 5903 5903 5903 5903 5903 5902 5902 5902 5903 5903 5904
5834 5833 5832 5831 5831 5831 5832 5833 5833 5833 5832 5833 5834 5835 5836 5837 5838 5838 5839 5840 5840 5841 5841 5842 5843 5844 5845 5845 5845 5846 5848 5849 5851 5851 5852 5852 5853 5854 5855 5856 5857 5858 5859 5860 5861 5862 5863 5865 5866 5868 5869 5871 5872 5874 5875 5877 5880 5882 5884 5885 5887 5888 5890 5891 5891 5893 5895 5897 5899 5900 5900 5900 5900 5900 5900 5901 5901 5902 5902 5902 5902 5902 5902 5902 5901 5901 5902 5903
5828 5827 5826 5825 5824 5825 5826 5827 5827 5827 5827 5827 5828 5829 5830 5831 5832 5833 5834 5835 5836 5836 5837 5839 5840 5840 5842 5841 5841 5843 5844 5846 5847 5848 5848 5849 5850 5851 5852 5853 5854 5855 5856 5858 5859 5860 5861 5862 5863 5864 5866 5868 5870 5872 5874 5876 5878 5880 5882 5884 5885 5887 5888 5889 5888 5889 5893 5895 5897 5899 5899 5899 5899 5899 5899 5899 5900 5901 5902 5902 5902 5902 5902 5902 5901 5900 5901 5902
5822 5821 5820 5819 5818 5818 5819 5820 5820 5821 5821 5821 5821 5823 5824 5825 5826 5827 5829 5830 5831 5832 5832 5834 5836 5836 5837 5838 5838 5839 5840 5841 5843 5845 5845 5845 5846 5848 5849 5850 5851 5853 5854 5856 5857 5858 5858 5859 5861 5863 5865 5867 5869 5871 5872 5873 5875 5878 5880 5882 5884 5884 5886 5887 5885 5887 5891 5893 5895 5896 5896 5897 5897 5897 5898 5898 5899 5900 5901 5901 5901 5902 5902 5902 5901 5900 5900 5900
5815 5815 5814 5812 5811 5811 5811 5812 5813 5813 5814 5815 5815 5816 5817 5819 5819 5821 5823 5824 5825 5827 5828 5829 5831 5832 5833 5834 5834 5835 5835 5836 5839 5841 5842 5842 5842 5844 5846 5847 5848 5850 5852 5853 5854 5854 5855 5857 5860 5862 5863 5864 5866 5868 5869 5870 5872 5875 5877 5879 5881 5881 5884 5884 5882 5884 5888 5889 5892 5893 5894 5895 5895 5895 5896 5896 5897 5898 5899 5900 5900 5901 5901 5901 5900 5899 5899 5899
5809 5808 5808 5806 5805 5804 5804 5804 5805 5806 5807 5808 5809 5809 5810 5812 5812 5814 5816 5818 5819 5820 5822 5824 5826 5828 5829 5828 5829 5830 5830 5833 5834 5836 5838 5838 5839 5841 5844 5844 5845 5848 5849 5849 5850 5852 5854 5857 5859 5859 5859 5860 5862 5864 5865 5867 5869 5871 5873 5875 5877 5879 5882 5881 5880 5883 5885 5885 5888 5890 5891 5892 5893 5893 5894 5895 5896 5896 5897 5898 5898 5899 5900 5901 5900 5899 5898 5897
5803 5802 5801 5800 5798 5798 5798 5797 5797 5798 5799 5800 5801 5802 5803 5804 5805 5807 5809 5811 5814 5814 5816 5819 5820 5823 5823 5823 5824 5824 5827 5829 5829 5831 5834 5835 5836 5838 5839 5841 5843 5844 5844 5846 5848 5850 5853 5855 5855 5855 5856 5856 5858 5859 5861 5863 5864 5866 5869 5871 5875 5878 5878 5878 5879 5880 5881 5881 5885 5886 5887 5890 5891 5891 5893 5894 5894 5894 5895 5896 5896 5897 5898 5899 5899 5898 5897 5896
5797 5796 5795 5794 5792 5791 5791 5790 5789 5790 5790 5792 5793 5794 5796 5797 5797 5799 5801 5804 5808 5809 5809 5811 5815 5817 5817 5818 5818 5819 5823 5824 5824 5827 5830 5830 5832 5833 5835 5838 5839 5839 5841 5844 5845 5846 5849 5851 5850 5851 5852 5852 5854 5855 5857 5859 5860 5863 5866 5868 5872 5873 5874 5876 5875 5875 5878 5880 5882 5883 5883 5886 5888 5889 5891 5892 5891 5891 5893 5894 5895 5896 5897 5898 5898 5899 5898 5896
5789 5789 5787 5787 5785 5784 5784 5783 5782 5782 5783 5784 5785 5786 5788 5789 5789 5792 5794 5795 5800 5803 5803 5803 5807 5810 5811 5813 5813 5814 5817 5819 5820 5823 5824 5826 5827 5829 5831 5833 5833 5835 5839 5841 5841 5843 5845 5846 5847 5848 5848 5849 5851 5852 5854 5856 5858 5860 5863 5866 5869 5868 5870 5872 5871 5873 5877 5878 5879 5880 5879 5881 5885 5887 5888 5888 5887 5889 5890 5891 5893 5894 5895 5896 5898 5899 5899 5898
5781 5781 5779 5778 5778 5777 5776 5776 5775 5775 5775 5775 5777 5779 5780 5780 5782 5784 5785 5787 5791 5796 5798 5797 5799 5802 5806 5807 5807 5808 5809 5813 5816 5816 5818 5821 5823 5824 5827 5828 5829 5832 5836 5837 5836 5838 5841 5842 5844 5844 5845 5847 5848 5850 5852 5853 5855 5857 5860 5863 5864 5864 5866 5868 5870 5872 5873 5874 5875 5874 5875 5878 5881 5883 5884 5883 5885 5887 5888 5890 5891 5893 5894 5896 5897 5898 5898 5898
5771 5772 5770 5768 5768 5768 5767 5768 5768 5767 5767 5766 5768 5770 5771 5772 5774 5776 5778 5778 5781 5786 5790 5791 5791 5794 5799 5801 5802 5802 5802 5808 5811 5809 5813 5817 5818 5820 5821 5822 5826 5829 5832 5832 5831 5835 5838 5839 5841 5842 5843 5844 5846 5849 5850 5850 5852 5855 5857 5858 5859 5861 5863 5865 5867 5868 5868 5871 5869 5868 5873 5875 5874 5879 5881 5880 5883 5884 5885 5888 5890 5891 5893 5894 5896 5897 5897 5897
5761 5762 5761 5758 5758 5758 5758 5759 5759 5758 5758 5758 5759 5761 5763 5764 5765 5767 5769 5769 5771 5777 5781 5784 5785 5787 5790 5793 5795 5795 5796 5802 5804 5803 5808 5812 5812 5814 5816 5819 5823 5826 5828 5827 5829 5834 5836 5836 5839 5840 5840 5842 5845 5847 5847 5847 5850 5852 5853 5854 5856 5858 5860 5862 5863 5863 5865 5866 5863 5865 5871 5869 5869 5876 5878 5877 5880 5881 5883 5887 5888 5890 5891 5892 5894 5895 5896 5896
5750 5751 5751 5749 5748 5747 5747 5748 5748 5749 5749 5749 5750 5752 5753 5755 5757 5759 5759 5760 5764 5768 5772 5775 5778 5780 5781 5784 5788 5789 5791 5795 5797 5798 5801 5804 5807 5809 5812 5816 5819 5821 5821 5822 5826 5830 5829 5831 5834 5834 5834 5838 5842 5842 5842 5844 5846 5847 5848 5851 5853 5853 5855 5857 5857 5859 5861 5859 5858 5863 5866 5864 5866 5872 5874 5873 5875 5878 5882 5885 5887 5888 5889 5890 5892 5893 5894 5895
5737 5738 5739 5738 5737 5736 5736 5736 5737 5739 5740 5740 5740 5742 5743 5744 5747 5748 5748 5752 5757 5760 5763 5765 5767 5771 5773 5776 5779 5782 5785 5787 5790 5793 5794 5797 5802 5804 5806 5810 5811 5814 5815 5816 5820 5822 5823 5827 5827 5826 5830 5834 5836 5835 5837 5840 5841 5842 5845 5847 5848 5848 5850 5851 5852 5855 5856 5852 5855 5860 5862 5862 5862 5867 5871 5870 5872 5877 5882 5884 5885 5886 5887 5888 5890 5891 5893 5894
5723 5723 5723 5724 5723 5723 5724 5723 5724 5726 5728 5730 5730 5732 5733 5733 5736 5737 5739 5746 5750 5750 5752 5753 5756 5762 5765 5768 5771 5775 5778 5780 5783 5785 5786 5790 5794 5796 5799 5802 5804 5808 5809 5811 5815 5816 5819 5823 5822 5823 5828 5830 5830 5831 5833 5836 5836 5838 5841 5842 5843 5845 5847 5848 5850 5852 5851 5849 5853 5857 5860 5861 5859 5864 5869 5868 5870 5876 5880 5881 5883 5884 5885 5887 5888 5889 5891 5892
5708 5708 5707 5708 5707 5707 5709 5710 5711 5713 5714 5717 5719 5721 5722 5721 5724 5727 5732 5739 5739 5738 5741 5743 5747 5753 5757 5760 5763 5767 5771 5773 5775 5778 5780 5783 5787 5790 5794 5797 5800 5802 5804 5809 5812 5812 5815 5819 5819 5821 5826 5826 5826 5827 5830 5832 5833 5835 5838 5838 5839 5842 5844 5845 5847 5848 5848 5849 5852 5855 5857 5858 5858 5862 5866 5866 5870 5874 5876 5879 5881 5883 5884 5885 5886 5887 5889 5890
5693 5693 5691 5691 5691 5691 5692 5693 5695 5698 5700 5703 5705 5708 5709 5710 5713 5718 5724 5725 5724 5728 5732 5735 5740 5744 5748 5752 5754 5758 5762 5765 5768 5770 5773 5776 5779 5784 5788 5791 5794 5798 5801 5805 5807 5809 5812 5814 5815 5817 5821 5823 5823 5825 5827 5829 5830 5833 5835 5836 5838 5840 5841 5842 5845 5846 5847 5849 5851 5852 5854 5855 5857 5860 5862 5865 5869 5870 5873 5877 5879 5881 5882 5883 5885 5886 5887 5888
5679 5678 5677 5675 5675 5675 5675 5676 5678 5681 5685 5688 5691 5693 5694 5698 5703 5706 5709 5710 5714 5720 5724 5727 5732 5735 5738 5742 5745 5751 5754 5756 5761 5764 5766 5768 5771 5775 5780 5783 5787 5791 5795 5797 5800 5804 5807 5809 5812 5815 5819 5820 5822 5823 5826 5827 5828 5830 5833 5835 5836 5837 5838 5841 5843 5845 5846 5847 5849 5850 5852 5854 5855 5857 5859 5863 5866 5868 5870 5874 5877 5878 5880 5882 5883 5883 5884 5886
5668 5666 5664 5662 5661 5660 5660 5661 5662 5664 5668 5672 5675 5677 5679 5686 5690 5690 5692 5698 5705 5711 5714 5718 5723 5725 5729 5733 5737 5742 5744 5748 5753 5756 5758 5760 5764 5768 5773 5777 5781 5785 5788 5789 5794 5799 5801 5804 5808 5813 5816 5818 5819 5820 5822 5823 5824 5827 5830 5830 5831 5834 5838 5840 5841 5842 5844 5845 5846 5848 5850 5852 5853 5855 5858 5860 5863 5865 5868 5871 5874 5876 5878 5879 5880 5881 5883 5885
5661 5656 5654 5652 5649 5648 5647 5647 5647 5649 5652 5656 5660 5663 5665 5670 5672 5673 5680 5687 5693 5699 5705 5710 5712 5715 5720 5723 5727 5732 5735 5739 5744 5747 5751 5754 5757 5760 5764 5769 5773 5778 5781 5783 5788 5793 5796 5799 5801 5806 5810 5811 5814 5816 5817 5819 5822 5823 5824 5826 5830 5835 5836 5836 5837 5839 5841 5841 5843 5846 5848 5849 5852 5854 5856 5858 5860 5862 5865 5868 5871 5874 5875 5876 5878 5879 5882 5883
5656 5650 5647 5644 5642 5639 5637 5637 5636 5637 5638 5641 5645 5648 5651 5654 5655 5659 5668 5675 5681 5688 5694 5698 5700 5704 5708 5711 5715 5720 5726 5732 5736 5739 5743 5746 5748 5751 5754 5760 5764 5769 5773 5776 5782 5786 5791 5794 5794 5800 5805 5806 5810 5811 5810 5814 5817 5817 5820 5825 5828 5829 5829 5830 5831 5834 5836 5838 5841 5844 5846 5847 5850 5852 5854 5856 5858 5860 5862 5865 5868 5870 5871 5873 5875 5878 5880 5882
5651 5645 5640 5637 5635 5633 5631 5629 5628 5628 5628 5629 5632 5634 5637 5639 5640 5646 5654 5662 5668 5674 5679 5685 5688 5692 5696 5699 5703 5710 5719 5723 5726 5731 5735 5736 5739 5743 5747 5753 5757 5762 5767 5772 5777 5780 5785 5788 5788 5795 5801 5802 5804 5803 5803 5807 5810 5812 5818 5821 5820 5821 5824 5826 5827 5831 5834 5836 5840 5842 5844 5846 5848 5851 5853 5855 5856 5859 5861 5863 5865 5867 5869 5871 5874 5876 5878 5880
5645 5639 5634 5630 5627 5625 5623 5622 5621 5620 5620 5619 5620 5622 5623 5625 5629 5634 5640 5647 5653 5658 5665 5671 5675 5680 5685 5688 5693 5702 5709 5711 5715 5722 5723 5724 5730 5736 5741 5745 5750 5756 5762 5767 5770 5772 5779 5783 5782 5789 5795 5795 5796 5796 5797 5802 5804 5807 5812 5812 5813 5818 5820 5822 5825 5830 5832 5835 5838 5840 5841 5844 5846 5848 5850 5852 5854 5857 5858 5860 5863 5865 5867 5869 5871 5874 5876 5878
5639 5633 5628 5623 5620 5617 5616 5615 5614 5613 5613 5612 5611 5611 5612 5615 5620 5623 5627 5633 5638 5644 5650 5656 5661 5667 5673 5678 5684 5692 5698 5700 5706 5711 5712 5716 5724 5729 5734 5738 5744 5750 5755 5760 5763 5766 5773 5777 5777 5782 5788 5788 5789 5791 5794 5797 5799 5803 5806 5806 5809 5815 5816 5818 5822 5826 5829 5832 5834 5836 5839 5841 5843 5845 5847 5849 5851 5853 5856 5858 5860 5862 5864 5866 5869 5871 5873 5876
5633 5627 5621 5616 5611 5608 5607 5608 5607 5606 5606 5606 5604 5603 5604 5606 5610 5612 5616 5621 5626 5632 5637 5642 5648 5655 5662 5668 5673 5680 5687 5691 5697 5701 5704 5710 5715 5719 5725 5731 5737 5743 5748 5753 5757 5758 5764 5770 5772 5775 5780 5783 5786 5788 5791 5792 5795 5801 5804 5805 5809 5814 5815 5816 5819 5823 5827 5830 5832 5834 5837 5839 5841 5842 5844 5846 5848 5850 5852 5854 5857 5859 5861 5863 5866 5868 5871 5874
5627 5620 5613 5607 5603 5600 5599 5600 5600 5599 5600 5600 5598 5598 5598 5599 5601 5604 5607 5610 5615 5620 5625 5630 5636 5644 5650 5656 5662 5668 5675 5681 5686 5691 5695 5701 5705 5711 5718 5724 5729 5735 5741 5745 5748 5751 5757 5763 5766 5769 5774 5780 5781 5782 5785 5788 5792 5797 5799 5801 5806 5810 5811 5813 5817 5822 5825 5828 5831 5832 5835 5838 5839 5840 5842 5844 5845 5847 5849 5851 5854 5856 5858 5860 5862 5865 5868 5871
5623 5614 5606 5600 5596 5594 5594 5594 5594 5594 5594 5593 5593 5593 5593 5593 5594 5596 5598 5600 5604 5609 5614 5620 5625 5631 5637 5643 5650 5658 5665 5671 5676 5681 5686 5692 5698 5705 5711 5716 5721 5726 5731 5735 5739 5745 5751 5756 5761 5764 5768 5774 5774 5774 5779 5784 5786 5789 5791 5795 5799 5802 5805 5808 5814 5819 5821 5824 5827 5829 5832 5837 5838 5839 5841 5842 5843 5845 5847 5849 5851 5853 5855 5857 5859 5862 5864 5867
5619 5610 5602 5597 5594 5591 5591 5590 5590 5590 5590 5589 5589 5589 5588 5588 5588 5589 5590 5593 5596 5599 5605 5611 5615 5619 5625 5632 5640 5648 5655 5662 5667 5672 5678 5684 5690 5696 5702 5707 5712 5717 5722 5727 5732 5740 5745 5749 5755 5758 5760 5764 5765 5767 5773 5776 5778 5781 5785 5789 5793 5797 5800 5804 5809 5813 5815 5818 5823 5826 5830 5833 5834 5836 5838 5840 5841 5843 5845 5847 5849 5851 5853 5855 5857 5859 5861 5864
5616 5608 5601 5595 5593 5591 5589 5588 5588 5587 5587 5587 5586 5585 5584 5583 5583 5583 5584 5586 5588 5591 5595 5601 5605 5609 5615 5622 5631 5638 5645 5652 5657 5662 5669 5676 5681 5688 5693 5698 5704 5709 5715 5722 5727 5735 5738 5740 5746 5750 5753 5758 5760 5762 5767 5770 5773 5776 5780 5784 5788 5791 5795 5800 5805 5807 5809 5815 5820 5823 5826 5829 5831 5834 5836 5837 5838 5840 5842 5845 5847 5849 5850 5852 5854 5856 5858 5860
5613 5607 5601 5596 5593 5591 5589 5588 5587 5586 5585 5585 5583 5582 5581 5580 5579 5579 5579 5580 5582 5584 5588 5592 5596 5600 5606 5613 5621 5629 5635 5642 5647 5652 5659 5666 5672 5679 5684 5690 5696 5701 5708 5714 5720 5726 5731 5733 5739 5744 5747 5751 5755 5757 5762 5766 5768 5770 5775 5779 5782 5785 5791 5797 5800 5801 5806 5813 5817 5820 5824 5826 5829 5832 5833 5834 5836 5837 5840 5843 5845 5846 5848 5849 5851 5853 5855 5857
5610 5605 5601 5597 5593 5591 5589 5587 5586 5585 5584 5582 5581 5580 5578 5577 5576 5574 5574 5575 5576 5578 5582 5585 5588 5592 5597 5603 5611 5619 5626 5632 5637 5643 5650 5656 5663 5671 5676 5681 5687 5693 5699 5706 5711 5718 5723 5727 5733 5739 5742 5745 5748 5751 5756 5761 5763 5766 5771 5775 5777 5781 5787 5793 5794 5797 5804 5809 5812 5818 5822 5824 5827 5829 5830 5832 5834 5835 5838 5840 5842 5844 5845 5847 5849 5851 5852 5854
5609 5603 5599 5596 5593 5591 5589 5587 5586 5584 5582 5581 5579 5577 5576 5574 5573 5571 5571 5571 5571 5573 5577 5580 5582 5584 5589 5595 5603 5610 5617 5625 5629 5634 5641 5648 5655 5661 5667 5672 5679 5684 5691 5697 5703 5710 5716 5719 5725 5732 5736 5739 5743 5747 5751 5755 5758 5762 5766 5770 5774 5778 5784 5788 5789 5794 5800 5804 5809 5816 5820 5821 5824 5827 5829 5831 5832 5834 5835 5837 5839 5841 5843 5844 5846 5847 5849 5851
5609 5603 5598 5594 5592 5590 5588 5587 5585 5583 5581 5579 5577 5575 5574 5573 5571 5569 5568 5568 5568 5569 5572 5576 5577 5578 5582 5588 5595 5602 5609 5616 5619 5623 5630 5638 5646 5652 5657 5662 5669 5675 5682 5688 5695 5702 5708 5711 5718 5725 5729 5733 5737 5741 5745 5750 5754 5758 5761 5765 5770 5774 5779 5782 5784 5790 5795 5799 5806 5813 5815 5817 5821 5825 5827 5829 5830 5831 5832 5834 5837 5839 5840 5841 5843 5844 5846 5847
5608 5603 5598 5594 5591 5589 5588 5585 5583 5581 5579 5578 5576 5574 5572 5571 5570 5568 5567 5566 5566 5567 5569 5573 5575 5576 5577 5581 5586 5592 5598 5604 5608 5613 5621 5630 5637 5642 5646 5652 5659 5667 5674 5680 5687 5694 5699 5703 5711 5719 5723 5727 5730 5735 5740 5744 5748 5752 5755 5759 5764 5768 5773 5776 5779 5786 5790 5794 5803 5809 5810 5814 5819 5822 5825 5827 5827 5829 5830 5831 5834 5835 5837 5839 5840 5841 5843 5844
5606 5602 5598 5594 5591 5589 5587 5584 5582 5580 5578 5576 5575 5573 5571 5570 5569 5567 5566 5565 5565 5566 5568 5569 5571 5573 5574 5576 5580 5583 5588 5594 5601 5606 5614 5622 5627 5632 5638 5645 5653 5661 5666 5671 5679 5686 5690 5697 5705 5712 5716 5720 5723 5728 5733 5737 5741 5745 5748 5754 5758 5762 5767 5771 5774 5781 5785 5789 5798 5804 5806 5811 5817 5819 5822 5823 5825 5827 5828 5829 5831 5832 5834 5836 5837 5839 5841 5842
5605 5601 5597 5593 5590 5587 5585 5583 5581 5579 5577 5575 5574 5572 5570 5569 5568 5566 5565 5564 5563 5564 5564 5565 5567 5570 5572 5574 5576 5578 5582 5588 5594 5599 5607 5614 5619 5625 5633 5639 5646 5652 5658 5664 5671 5677 5683 5691 5698 5703 5709 5713 5715 5721 5727 5731 5734 5738 5743 5749 5754 5757 5763 5766 5770 5776 5780 5785 5793 5798 5801 5806 5812 5815 5816 5818 5822 5824 5826 5827 5828 5829 5831 5832 5834 5836 5838 5839